Kelso, MO

3:13 PM CST on February 20, 2017 (GMT -0600)
Cape Girardeau Regional

Weather History for KCGI - February, 2014

Change the Weather History Date:

Saturday, February 22, 2014

  Actual Average Record
Temperature  
Mean Temperature 47 °F 40 °F  
Max Temperature 63 °F 50 °F 68 °F (1988)
Min Temperature 30 °F 30 °F 0 °F (1963)
Degree Days  
Heating Degree Days 18 25  
Month to date heating degree days 745 616  
Since 1 July heating degree days 3729 3354  
Cooling Degree Days 0 0  
Month to date cooling degree days 0 0  
Year to date cooling degree days 0 0  
Moisture  
Dew Point 33 °F    
Average Humidity 60    
Maximum Humidity 85    
Minimum Humidity 34    
Precipitation  
Precipitation 0.00 in 0.12 in 2.46 in (1975)
Month to date precipitation 1.14 2.68  
Year to date precipitation 3.14 6.15  
Sea Level Pressure  
Sea Level Pressure 29.99 in    
Wind  
Wind Speed 8 mph (South)    
Max Wind Speed 18 mph    
Max Gust Speed 25 mph    
Visibility 10 miles    
Events      
T = Trace of Precipitation, MM = Missing Value Source: NWS Daily Summary

Daily Weather History Graph

Daily Weather History Graph

Search for Another Location

Airport or City:

Trip Planner

Search our weather history database for the weather conditions in past years. The results will help you decide how hot, cold, wet, or windy it might be!

Date:

Astronomy

Feb. 22, 2014 Rise Set
Actual Time 6:38 AM CST 5:45 PM CST
Civil Twilight 6:12 AM CST 6:11 PM CST
Nautical Twilight 5:41 AM CST 6:42 PM CST
Astronomical Twilight 5:11 AM CST 7:12 PM CST
Moon 12:30 AM CST (2/22) 10:59 AM CST (2/22)
Length of Visible Light 11h 59m
Length of Day
11h 06m
Waning Gibbous, 50% of the Moon is Illuminated
Feb 22
Waning Gibbous
Mar 1
New
Mar 8
First Quarter
Mar 16
Full
Mar 23
Last Quarter

Hourly Weather History & Observations

Time (CST) Temp. Windchill Dew Point Humidity Pressure Visibility Wind Dir Wind Speed Gust Speed Precip Events Conditions
12:53 AM 39.0 °F 36.8 °F 30.0 °F 70% 30.03 in 10.0 mi WSW 3.5 mph - N/A   Clear
1:53 AM 39.9 °F - 28.9 °F 65% 30.02 in 10.0 mi Calm Calm - N/A   Clear
2:53 AM 39.0 °F 35.7 °F 28.9 °F 67% 30.01 in 10.0 mi SSW 4.6 mph - N/A   Clear
3:53 AM 36.0 °F - 28.9 °F 76% 30.03 in 10.0 mi Calm Calm - N/A   Clear
4:53 AM 34.0 °F - 28.0 °F 79% 30.04 in 10.0 mi Calm Calm - N/A   Clear
5:53 AM 30.9 °F 26.2 °F 26.1 °F 82% 30.05 in 10.0 mi SSE 4.6 mph - N/A   Clear
6:53 AM 32.0 °F 26.4 °F 28.9 °F 88% 30.06 in 10.0 mi SSE 5.8 mph - N/A   Clear
7:53 AM 37.0 °F 31.6 °F 30.9 °F 79% 30.07 in 10.0 mi SSE 6.9 mph - N/A   Clear
8:53 AM 45.0 °F 41.8 °F 34.0 °F 65% 30.08 in 10.0 mi SSW 5.8 mph - N/A   Clear
9:53 AM 51.1 °F - 30.9 °F 46% 30.07 in 10.0 mi South 5.8 mph - N/A   Clear
10:53 AM 55.9 °F - 32.0 °F 40% 30.04 in 10.0 mi SSE 8.1 mph - N/A   Clear
11:53 AM 60.1 °F - 32.0 °F 35% 30.01 in 10.0 mi South 10.4 mph - N/A   Clear
12:53 PM 62.1 °F - 34.0 °F 35% 29.98 in 10.0 mi South 9.2 mph - N/A   Clear
1:53 PM 62.1 °F - 37.9 °F 41% 29.95 in 10.0 mi SSW 10.4 mph - N/A   Clear
2:53 PM 62.1 °F - 37.9 °F 41% 29.93 in 10.0 mi South 18.4 mph 24.2 mph N/A   Clear
3:53 PM 62.1 °F - 33.1 °F 34% 29.91 in 10.0 mi South 19.6 mph 25.3 mph N/A   Clear
4:53 PM 59.0 °F - 37.0 °F 44% 29.91 in 10.0 mi South 15.0 mph 23.0 mph N/A   Clear
5:53 PM 57.0 °F - 34.0 °F 42% 29.90 in 10.0 mi South 15.0 mph - N/A   Clear
6:53 PM 55.0 °F - 34.0 °F 45% 29.91 in 10.0 mi South 10.4 mph - N/A   Clear
7:53 PM 55.0 °F - 35.1 °F 47% 29.92 in 10.0 mi SSW 10.4 mph - N/A   Clear
8:53 PM 53.1 °F - 35.1 °F 50% 29.93 in 10.0 mi SSW 11.5 mph - N/A   Clear
9:53 PM 48.9 °F - 36.0 °F 61% 29.96 in 10.0 mi NNW 8.1 mph - N/A   Clear
10:53 PM 42.1 °F - 35.1 °F 76% 29.98 in 10.0 mi Calm Calm - N/A   Clear
11:53 PM 39.9 °F 37.8 °F 36.0 °F 86% 30.00 in 10.0 mi WNW 3.5 mph - N/A   Overcast